| time (UTC) | temp C | wind direction | speed KPH | gust KPH | rain 1hr cm | rain 24hr cm | rain mn cm | humidity % | barometer mb |
| 20260904010029 | 17 | 106 | 0.0 | 0.0 | 0.00 | 0.38 | 0.38 | 91 | 1010.8 |
| 20260904004605 | 17 | 106 | 0.0 | 0.0 | 0.00 | 0.38 | 0.38 | 90 | 1010.6 |
| 20260904003041 | 17 | 106 | 0.0 | 0.0 | 0.00 | 0.38 | 0.38 | 90 | 1010.4 |
| 20260904001520 | 18 | 106 | 0.0 | 0.0 | 0.00 | 0.38 | 0.38 | 89 | 1010.4 |
| 20260904000005 | 18 | 106 | 0.0 | 0.0 | 0.00 | 0.38 | 0.38 | 89 | 1010.2 |
| 20260903234542 | 18 | 80 | 0.0 | 0.0 | 0.00 | 0.38 | 0.38 | 88 | 1010.1 |
| 20260903233017 | 18 | 78 | 0.0 | 0.0 | 0.00 | 0.38 | 0.38 | 88 | 1010.3 |
| 20260903231556 | 18 | 78 | 0.0 | 0.0 | 0.00 | 0.38 | 0.38 | 86 | 1010.6 |
| 20260903230041 | 18 | 78 | 0.0 | 0.0 | 0.00 | 0.38 | 0.38 | 86 | 1010.5 |
| 20260903224517 | 19 | 78 | 0.0 | 0.0 | 0.00 | 0.38 | 0.38 | 85 | 1010.5 |
| 20260903223053 | 20 | 78 | 0.0 | 0.0 | 0.00 | 0.38 | 0.38 | 84 | 1010.5 |
| 20260903221535 | 20 | 78 | 0.0 | 0.0 | 0.00 | 0.38 | 0.38 | 83 | 1010.5 |
| 20260903220016 | 20 | 71 | 0.0 | 0.0 | 0.00 | 0.38 | 0.38 | 81 | 1010.7 |
| 20260903214605 | 20 | 103 | 0.0 | 0.0 | 0.00 | 0.38 | 0.38 | 82 | 1010.6 |
| 20260903213031 | 19 | 94 | 0.0 | 0.0 | 0.00 | 0.38 | 0.38 | 87 | 1010.6 |
| 20260903211515 | 19 | 58 | 0.0 | 0.0 | 0.00 | 0.38 | 0.38 | 86 | 1010.7 |
| 20260903210047 | 19 | 103 | 0.0 | 0.0 | 0.00 | 0.38 | 0.38 | 87 | 1010.6 |
| 20260903204520 | 18 | 94 | 0.0 | 0.0 | 0.00 | 0.38 | 0.38 | 90 | 1010.7 |
| 20260903203057 | 18 | 80 | 0.0 | 0.0 | 0.00 | 0.38 | 0.38 | 89 | 1010.9 |
| 20260903201543 | 18 | 92 | 0.0 | 0.0 | 0.00 | 0.38 | 0.38 | 89 | 1010.9 |
| 20260903200013 | 18 | 94 | 0.0 | 0.0 | 0.00 | 0.38 | 0.38 | 88 | 1010.9 |
| 20260903194554 | 18 | 57 | 0.0 | 0.0 | 0.00 | 0.38 | 0.38 | 90 | 1010.9 |
| 20260903193023 | 18 | 80 | 0.0 | 0.0 | 0.00 | 0.38 | 0.38 | 91 | 1011.0 |
| 20260903191509 | 18 | 63 | 0.0 | 0.0 | 0.00 | 0.38 | 0.38 | 90 | 1011.3 |
| 20260903190044 | 18 | 138 | 0.0 | 0.0 | 0.00 | 0.38 | 0.38 | 90 | 1011.6 |
| 20260903184522 | 18 | 96 | 0.0 | 0.0 | 0.00 | 0.38 | 0.38 | 90 | 1011.8 |
| 20260903183059 | 18 | 122 | 0.0 | 0.0 | 0.00 | 0.38 | 0.38 | 90 | 1011.8 |
| 20260903181535 | 18 | 89 | 0.0 | 0.0 | 0.00 | 0.38 | 0.38 | 90 | 1011.9 |
| 20260903180013 | 18 | 98 | 0.0 | 0.0 | 0.00 | 0.38 | 0.38 | 91 | 1012.0 |
| 20260903174546 | 18 | 136 | 0.0 | 0.0 | 0.00 | 0.38 | 0.38 | 91 | 1011.8 |
| 20260903173031 | 17 | 82 | 0.0 | 4.8 | 0.00 | 0.38 | 0.38 | 93 | 1011.8 |
| 20260903171510 | 17 | 204 | 0.0 | 0.0 | 0.00 | 0.38 | 0.38 | 93 | 1012.3 |
| 20260903170052 | 17 | 159 | 0.0 | 6.4 | 0.00 | 0.38 | 0.38 | 93 | 1012.1 |
| 20260903164517 | 17 | 118 | 0.0 | 0.0 | 0.00 | 0.38 | 0.38 | 94 | 1012.1 |
| 20260903163052 | 17 | 79 | 0.0 | 0.0 | 0.00 | 0.38 | 0.38 | 94 | 1012.5 |
| 20260903161535 | 17 | 148 | 0.0 | 0.0 | 0.00 | 0.38 | 0.38 | 94 | 1012.7 |
| 20260903160011 | 17 | 182 | 0.0 | 0.0 | 0.00 | 0.38 | 0.38 | 95 | 1012.9 |
| 20260903154553 | 17 | 169 | 0.0 | 0.0 | 0.03 | 0.38 | 0.38 | 95 | 1013.0 |
| 20260903153020 | 16 | 198 | 0.0 | 0.0 | 0.03 | 0.38 | 0.38 | 95 | 1013.3 |
| 20260903151606 | 17 | 173 | 0.0 | 1.6 | 0.03 | 0.38 | 0.38 | 95 | 1013.4 |
| 20260903150032 | 17 | 171 | 0.0 | 0.0 | 0.05 | 0.38 | 0.38 | 95 | 1013.6 |
| 20260903144521 | 16 | 117 | 0.0 | 4.8 | 0.03 | 0.36 | 0.36 | 95 | 1013.8 |
| 20260903143009 | 16 | 143 | 0.0 | 0.0 | 0.03 | 0.36 | 0.36 | 95 | 1013.9 |
| 20260903141546 | 16 | 114 | 0.0 | 0.0 | 0.05 | 0.36 | 0.36 | 95 | 1013.8 |
| 20260903140019 | 16 | 133 | 0.0 | 0.0 | 0.03 | 0.33 | 0.33 | 95 | 1013.9 |
| 20260903134604 | 16 | 167 | 0.0 | 1.6 | 0.03 | 0.33 | 0.33 | 94 | 1014.0 |
| 20260903133035 | 16 | 130 | 0.0 | 0.0 | 0.08 | 0.33 | 0.33 | 94 | 1013.9 |
| 20260903131517 | 16 | 156 | 0.0 | 0.0 | 0.05 | 0.30 | 0.30 | 94 | 1014.1 |
| 20260903130055 | 16 | 159 | 0.0 | 0.0 | 0.05 | 0.30 | 0.30 | 94 | 1014.2 |
| 20260903124541 | 16 | 116 | 0.0 | 0.0 | 0.05 | 0.30 | 0.30 | 93 | 1014.4 |
| 20260903123017 | 15 | 146 | 0.0 | 0.0 | 0.00 | 0.25 | 0.25 | 93 | 1014.7 |
| 20260903121552 | 15 | 213 | 0.0 | 0.0 | 0.00 | 0.25 | 0.25 | 93 | 1014.8 |
| 20260903120028 | 15 | 226 | 0.0 | 0.0 | 0.00 | 0.25 | 0.25 | 93 | 1014.9 |
| 20260903114511 | 15 | 158 | 0.0 | 0.0 | 0.00 | 0.25 | 0.25 | 93 | 1014.8 |
| 20260903113045 | 15 | 197 | 0.0 | 0.0 | 0.00 | 0.25 | 0.25 | 93 | 1014.6 |
| 20260903111530 | 15 | 142 | 0.0 | 1.6 | 0.00 | 0.25 | 0.25 | 93 | 1014.8 |
| 20260903110059 | 15 | 165 | 0.0 | 0.0 | 0.03 | 0.25 | 0.25 | 92 | 1014.6 |
| 20260903104537 | 15 | 206 | 0.0 | 0.0 | 0.05 | 0.25 | 0.25 | 92 | 1014.8 |
| 20260903103007 | 16 | 207 | 0.0 | 3.2 | 0.20 | 0.25 | 0.25 | 93 | 1015.0 |
| 20260903101549 | 16 | 170 | 0.0 | 0.0 | 0.25 | 0.25 | 0.25 | 93 | 1014.9 |
| 20260903100031 | 16 | 170 | 0.0 | 0.0 | 0.23 | 0.23 | 0.23 | 92 | 1015.0 |
| 20260903094519 | 16 | 132 | 0.0 | 0.0 | 0.20 | 0.20 | 0.20 | 92 | 1015.2 |
| 20260903093103 | 16 | 167 | 0.0 | 0.0 | 0.05 | 0.05 | 0.05 | 92 | 1015.3 |
| 20260903091536 | 16 | 167 | 0.0 | 0.0 | 0.00 | 0.00 | 0.00 | 92 | 1015.6 |
| 20260903090004 | 16 | 167 | 0.0 | 0.0 | 0.00 | 0.00 | 0.00 | 92 | 1015.5 |
| 20260903084546 | 16 | 167 | 0.0 | 0.0 | 0.00 | 0.00 | 0.00 | 93 | 1015.0 |
| 20260903083029 | 16 | 147 | 0.0 | 4.8 | 0.00 | 0.00 | 0.00 | 93 | 1015.0 |
| 20260903081502 | 16 | 121 | 0.0 | 0.0 | 0.00 | 0.00 | 0.00 | 93 | 1015.1 |
| 20260903080040 | 16 | 83 | 0.0 | 0.0 | 0.00 | 0.00 | 0.00 | 94 | 1015.3 |
| 20260903074516 | 16 | 91 | 0.0 | 0.0 | 0.00 | 0.00 | 0.00 | 93 | 1015.2 |
| 20260903073051 | 16 | 91 | 0.0 | 0.0 | 0.00 | 0.00 | 0.00 | 93 | 1015.5 |
| 20260903071531 | 16 | 91 | 0.0 | 0.0 | 0.00 | 0.00 | 0.00 | 93 | 1015.7 |
| 20260903070020 | 16 | 91 | 0.0 | 0.0 | 0.00 | 0.00 | 0.00 | 93 | 1016.0 |
| 20260903064552 | 16 | 91 | 0.0 | 0.0 | 0.00 | 0.00 | 0.00 | 93 | 1016.5 |
| 20260903063022 | 16 | 91 | 0.0 | 0.0 | 0.00 | 0.00 | 0.00 | 93 | 1016.8 |
| 20260903061559 | 16 | 91 | 0.0 | 0.0 | 0.00 | 0.00 | 0.00 | 93 | 1016.9 |
| 20260903060032 | 16 | 90 | 0.0 | 0.0 | 0.00 | 0.00 | 0.00 | 93 | 1017.2 |
| 20260903054512 | 16 | 99 | 0.0 | 0.0 | 0.00 | 0.00 | 0.00 | 93 | 1017.1 |
| 20260903053043 | 16 | 103 | 0.0 | 0.0 | 0.00 | 0.00 | 0.00 | 92 | 1017.4 |
| 20260903051528 | 16 | 101 | 0.0 | 0.0 | 0.00 | 0.00 | 0.00 | 92 | 1017.4 |
| 20260903050014 | 16 | 92 | 0.0 | 0.0 | 0.00 | 0.00 | 0.00 | 92 | 1017.5 |
| 20260903044546 | 16 | 93 | 0.0 | 0.0 | 0.00 | 0.00 | 0.00 | 92 | 1017.6 |
| 20260903043015 | 16 | 96 | 0.0 | 0.0 | 0.00 | 0.00 | 0.00 | 91 | 1017.8 |
| 20260903041554 | 16 | 99 | 0.0 | 0.0 | 0.00 | 0.00 | 0.00 | 91 | 1018.1 |
| 20260903040035 | 16 | 100 | 0.0 | 0.0 | 0.00 | 0.00 | 0.00 | 91 | 1018.4 |
| 20260903034512 | 16 | 100 | 0.0 | 0.0 | 0.00 | 0.00 | 0.00 | 91 | 1018.4 |
| 20260903033052 | 16 | 100 | 0.0 | 0.0 | 0.00 | 0.00 | 0.00 | 91 | 1018.6 |
| 20260903031534 | 16 | 100 | 0.0 | 0.0 | 0.00 | 0.00 | 0.00 | 91 | 1018.6 |
| 20260903030134 | 16 | 101 | 0.0 | 0.0 | 0.00 | 0.00 | 0.00 | 91 | 1018.6 |
| 20260903024537 | 16 | 104 | 0.0 | 0.0 | 0.00 | 0.00 | 0.00 | 91 | 1018.6 |
| 20260903023022 | 16 | 105 | 0.0 | 0.0 | 0.00 | 0.00 | 0.00 | 90 | 1019.0 |
| 20260903021550 | 16 | 105 | 0.0 | 0.0 | 0.00 | 0.00 | 0.00 | 90 | 1018.9 |
| 20260903020057 | 16 | 105 | 0.0 | 0.0 | 0.00 | 0.00 | 0.00 | 90 | 1019.0 |
| 20260903014513 | 16 | 105 | 0.0 | 0.0 | 0.00 | 0.00 | 0.00 | 90 | 1019.1 |
| 20260903013048 | 16 | 161 | 0.0 | 0.0 | 0.00 | 0.00 | 0.00 | 90 | 1019.1 |
| 20260903011524 | 15 | 103 | 0.0 | 0.0 | 0.00 | 0.00 | 0.00 | 90 | 1018.9 |